Regional Weather Roundup
Issued by NWS Binghamton, NY

Home | Current Version | Previous Version | Text Only | Print | Product List | Glossary On
Versions: 1 2 3 4 5 6 7 8 9 10 11 12 13 14 15 16 17 18 19 20 21 22 23 24 25 26 27 28 29 30 31 32 33 34 35 36 37 38 39 40 41 42 43 44 45 46 47 48 49 50
000
ASUS41 KBGM 220210
RWRBGM
RWRBGM
BINGHAMTON REGIONAL WEATHER ROUNDUP
NATIONAL WEATHER SERVICE BINGHAMTON NY
900 PM EST SUN DEC 21 2014

Note: "fair" indicates few or no clouds below 12,000 feet with no
significant weather and/or obstructions to visibility.

* = Station(s) that does not report precipitation, such as rain,
snow, etc, also no thunder or fog.

!NYZ009-015>018-022>025-036-037-044>046-055>057-062-220300
...CENTRAL NEW YORK...

CITY           SKY/WX    TMP DP  RH WIND       PRES   REMARKS
BINGHAMTON     CLOUDY    26  20  77 CALM      30.27R
CORTLAND       CLOUDY    30  23  74 SE3       30.31S
DANSVILLE      CLOUDY    31  22  69 SE5       30.31S WCI  26
ELMIRA         CLOUDY    30  22  72 SW3       30.31R
ITHACA         CLOUDY    28  22  78 CALM      30.32R
HAMILTON       CLOUDY    30  21  69 CALM      30.31S
MONTICELLO     CLOUDY    28  25  86 SE5       30.29S WCI  23
NORWICH        CLOUDY    28  21  74 CALM      30.32S
ONEONTA        CLOUDY    27  25  93 CALM      30.27R
PENN YAN       CLOUDY    31  21  66 CALM      30.31R
ROME           CLOUDY    31  23  72 E5        30.36S WCI  26
SIDNEY         CLOUDY    28  27  93 CALM      30.31S
SYRACUSE       CLOUDY    30  26  85 E3        30.34R
$$

!PAZ038>040-043-044-047-048-072-220300
...NORTHEAST PENNSYLVANIA...

CITY           SKY/WX    TMP DP  RH WIND       PRES   REMARKS
HAZLETON       CLEAR     23  19  86 CALM      30.29S
SCRANTON       CLOUDY    30  21  69 CALM      30.30F
TOWANDA*       CLOUDY    30  19  64 CALM      30.33S
$$
&&
KEY
WCI = WIND CHILL INDEX
VSB = VISIBILITY
HX  = HEAT INDEX
$$


USA.gov is the U.S. government's official web portal to all federal, state and local government web resources and services.